Time,TemperatureF,DewpointF,PressureIn,WindDirection,WindDirectionDegrees,WindSpeedMPH,WindSpeedGustMPH,Humidity,HourlyPrecipIn,Conditions,Clouds,dailyrainin,SoftwareType,DateUTC
2013-03-13 00:02:00,60.0,39.0,30.17,East,80,0.0,10.0,45,0.00,,,0.00,,2013-03-13 05:02:00,
2013-03-13 00:12:00,60.0,39.0,30.17,East,80,0.0,10.0,45,0.00,,,0.00,,2013-03-13 05:12:00,
2013-03-13 00:22:00,59.0,38.0,30.18,East,80,0.0,4.0,46,0.00,,,0.00,,2013-03-13 05:22:00,
2013-03-13 00:32:00,58.0,38.0,30.18,East,80,2.0,8.0,47,0.00,,,0.00,,2013-03-13 05:32:00,
2013-03-13 00:42:00,58.0,38.0,30.18,East,80,2.0,8.0,47,0.00,,,0.00,,2013-03-13 05:42:00,
2013-03-13 00:52:00,58.0,37.0,30.19,East,82,4.0,11.0,46,0.00,,,0.00,,2013-03-13 05:52:00,
2013-03-13 01:02:00,59.0,38.0,30.19,East,82,5.0,12.0,46,0.00,,,0.00,,2013-03-13 06:02:00,
2013-03-13 01:12:00,59.0,38.0,30.19,East,82,5.0,12.0,46,0.00,,,0.00,,2013-03-13 06:12:00,
2013-03-13 01:23:00,58.0,38.0,30.20,ENE,74,6.0,12.0,47,0.00,,,0.00,,2013-03-13 06:23:00,
2013-03-13 01:32:00,57.0,38.0,30.21,ENE,75,5.0,12.0,48,0.00,,,0.00,,2013-03-13 06:32:00,
2013-03-13 01:42:00,57.0,38.0,30.21,ENE,75,5.0,12.0,48,0.00,,,0.00,,2013-03-13 06:42:00,
2013-03-13 01:52:00,57.0,38.0,30.21,East,91,3.0,11.0,48,0.00,,,0.00,,2013-03-13 06:52:00,
2013-03-13 02:02:00,56.0,37.0,30.22,East,84,4.0,10.0,49,0.00,,,0.00,,2013-03-13 07:02:00,
2013-03-13 02:12:00,56.0,37.0,30.22,East,84,4.0,10.0,49,0.00,,,0.00,,2013-03-13 07:12:00,
2013-03-13 02:22:00,56.0,37.0,30.22,ENE,77,4.0,10.0,48,0.00,,,0.00,,2013-03-13 07:22:00,
2013-03-13 02:32:00,56.0,37.0,30.23,ENE,78,0.0,9.0,48,0.00,,,0.00,,2013-03-13 07:32:00,
2013-03-13 02:42:00,56.0,37.0,30.23,ENE,78,0.0,9.0,48,0.00,,,0.00,,2013-03-13 07:42:00,
2013-03-13 02:52:00,55.0,35.0,30.23,ENE,78,1.0,9.0,47,0.00,,,0.00,,2013-03-13 07:52:00,
2013-03-13 03:03:00,55.0,35.0,30.23,ENE,77,2.0,9.0,47,0.00,,,0.00,,2013-03-13 08:03:00,
2013-03-13 03:12:00,55.0,35.0,30.23,ENE,77,2.0,9.0,47,0.00,,,0.00,,2013-03-13 08:12:00,
2013-03-13 03:22:00,54.0,35.0,30.24,ENE,77,0.0,5.0,48,0.00,,,0.00,,2013-03-13 08:22:00,
2013-03-13 03:32:00,53.0,34.0,30.24,ENE,77,0.0,3.0,49,0.00,,,0.00,,2013-03-13 08:32:00,
2013-03-13 03:43:00,53.0,34.0,30.24,ENE,77,0.0,3.0,49,0.00,,,0.00,,2013-03-13 08:43:00,
2013-03-13 03:52:00,53.0,35.0,30.24,ENE,77,0.0,7.0,51,0.00,,,0.00,,2013-03-13 08:52:00,
2013-03-13 04:02:00,52.0,35.0,30.24,ENE,77,0.0,2.0,52,0.00,,,0.00,,2013-03-13 09:02:00,
2013-03-13 04:12:00,52.0,35.0,30.24,ENE,77,0.0,2.0,52,0.00,,,0.00,,2013-03-13 09:12:00,
2013-03-13 04:22:00,52.0,34.0,30.24,ENE,77,0.0,4.0,51,0.00,,,0.00,,2013-03-13 09:22:00,
2013-03-13 04:32:00,52.0,34.0,30.24,ENE,76,0.0,9.0,50,0.00,,,0.00,,2013-03-13 09:32:00,
2013-03-13 04:42:00,52.0,34.0,30.24,ENE,76,0.0,9.0,50,0.00,,,0.00,,2013-03-13 09:42:00,
2013-03-13 04:52:00,52.0,34.0,30.24,ENE,76,0.0,9.0,50,0.00,,,0.00,,2013-03-13 09:52:00,
2013-03-13 05:02:00,51.0,33.0,30.25,ENE,77,0.0,0.0,50,0.00,,,0.00,,2013-03-13 10:02:00,
2013-03-13 05:12:00,51.0,33.0,30.25,ENE,77,0.0,0.0,50,0.00,,,0.00,,2013-03-13 10:12:00,
2013-03-13 05:22:00,51.0,33.0,30.26,ENE,76,0.0,0.0,50,0.00,,,0.00,,2013-03-13 10:22:00,
2013-03-13 05:32:00,50.0,33.0,30.26,ENE,76,0.0,0.0,52,0.00,,,0.00,,2013-03-13 10:32:00,
2013-03-13 05:42:00,50.0,33.0,30.26,ENE,76,0.0,0.0,52,0.00,,,0.00,,2013-03-13 10:42:00,
2013-03-13 05:52:00,50.0,34.0,30.26,ENE,76,0.0,0.0,53,0.00,,,0.00,,2013-03-13 10:52:00,
2013-03-13 06:02:00,50.0,34.0,30.26,ENE,77,0.0,0.0,54,0.00,,,0.00,,2013-03-13 11:02:00,
2013-03-13 06:12:00,50.0,34.0,30.26,ENE,77,0.0,0.0,54,0.00,,,0.00,,2013-03-13 11:12:00,
2013-03-13 06:22:00,49.0,35.0,30.27,ENE,76,0.0,0.0,59,0.00,,,0.00,,2013-03-13 11:22:00,
2013-03-13 06:32:00,49.0,35.0,30.27,ENE,76,0.0,0.0,59,0.00,,,0.00,,2013-03-13 11:32:00,
2013-03-13 06:42:00,49.0,35.0,30.27,ENE,76,0.0,0.0,59,0.00,,,0.00,,2013-03-13 11:42:00,
2013-03-13 06:52:00,49.0,35.0,30.27,ENE,77,0.0,0.0,58,0.00,,,0.00,,2013-03-13 11:52:00,
2013-03-13 07:02:00,49.0,33.0,30.27,ENE,77,0.0,4.0,54,0.00,,,0.00,,2013-03-13 12:02:00,
2013-03-13 07:12:00,49.0,33.0,30.27,ENE,77,0.0,4.0,54,0.00,,,0.00,,2013-03-13 12:12:00,
2013-03-13 07:22:00,49.0,33.0,30.29,ENE,77,0.0,4.0,53,0.00,,,0.00,,2013-03-13 12:22:00,
2013-03-13 07:32:00,49.0,32.0,30.29,ENE,77,0.0,0.0,52,0.00,,,0.00,,2013-03-13 12:32:00,
2013-03-13 07:42:00,49.0,32.0,30.29,ENE,77,0.0,0.0,52,0.00,,,0.00,,2013-03-13 12:42:00,
2013-03-13 07:52:00,49.0,33.0,30.30,ENE,77,0.0,0.0,53,0.00,,,0.00,,2013-03-13 12:52:00,
2013-03-13 08:02:00,49.0,33.0,30.30,ENE,77,0.0,4.0,54,0.00,,,0.00,,2013-03-13 13:02:00,
2013-03-13 08:12:00,49.0,33.0,30.30,ENE,77,0.0,4.0,54,0.00,,,0.00,,2013-03-13 13:12:00,
2013-03-13 08:22:00,49.0,33.0,30.31,ENE,77,0.0,3.0,54,0.00,,,0.00,,2013-03-13 13:22:00,
2013-03-13 08:33:00,48.0,33.0,30.32,ENE,77,0.0,5.0,55,0.00,,,0.00,,2013-03-13 13:33:00,
2013-03-13 08:42:00,48.0,33.0,30.32,ENE,77,0.0,5.0,55,0.00,,,0.00,,2013-03-13 13:42:00,
2013-03-13 08:52:00,48.0,33.0,30.32,ENE,77,0.0,0.0,55,0.00,,,0.00,,2013-03-13 13:52:00,
2013-03-13 09:02:00,49.0,34.0,30.33,ENE,77,0.0,0.0,56,0.00,,,0.00,,2013-03-13 14:02:00,
2013-03-13 09:12:00,49.0,34.0,30.33,ENE,77,0.0,0.0,56,0.00,,,0.00,,2013-03-13 14:12:00,
2013-03-13 09:22:00,51.0,34.0,30.34,ENE,77,0.0,5.0,52,0.00,,,0.00,,2013-03-13 14:22:00,
2013-03-13 09:33:00,52.0,34.0,30.35,ENE,77,0.0,4.0,51,0.00,,,0.00,,2013-03-13 14:33:00,
2013-03-13 09:42:00,52.0,34.0,30.35,ENE,77,0.0,4.0,51,0.00,,,0.00,,2013-03-13 14:42:00,
2013-03-13 09:52:00,54.0,35.0,30.35,ENE,77,2.0,5.0,49,0.00,,,0.00,,2013-03-13 14:52:00,
2013-03-13 10:03:00,55.0,35.0,30.35,ENE,77,1.0,10.0,47,0.00,,,0.00,,2013-03-13 15:03:00,
2013-03-13 10:12:00,55.0,35.0,30.35,ENE,77,1.0,10.0,47,0.00,,,0.00,,2013-03-13 15:12:00,
2013-03-13 10:22:00,56.0,35.0,30.36,ESE,103,2.0,12.0,45,0.00,,,0.00,,2013-03-13 15:22:00,
2013-03-13 10:32:00,57.0,35.0,30.37,ESE,110,4.0,12.0,43,0.00,,,0.00,,2013-03-13 15:32:00,
2013-03-13 10:42:00,57.0,35.0,30.37,ESE,110,4.0,12.0,43,0.00,,,0.00,,2013-03-13 15:42:00,
2013-03-13 10:52:00,59.0,35.0,30.37,ESE,113,6.0,10.0,41,0.00,,,0.00,,2013-03-13 15:52:00,
2013-03-13 11:03:00,60.0,35.0,30.37,ESE,119,6.0,11.0,39,0.00,,,0.00,,2013-03-13 16:03:00,
2013-03-13 11:12:00,60.0,35.0,30.37,ESE,119,6.0,11.0,39,0.00,,,0.00,,2013-03-13 16:12:00,
2013-03-13 11:22:00,61.0,35.0,30.37,ESE,121,5.0,13.0,38,0.00,,,0.00,,2013-03-13 16:22:00,
2013-03-13 11:32:00,63.0,36.0,30.37,ESE,119,4.0,11.0,37,0.00,,,0.00,,2013-03-13 16:32:00,
2013-03-13 11:42:00,63.0,36.0,30.37,ESE,119,4.0,11.0,37,0.00,,,0.00,,2013-03-13 16:42:00,
2013-03-13 11:52:00,64.0,36.0,30.37,SE,130,5.0,9.0,35,0.00,,,0.00,,2013-03-13 16:52:00,
2013-03-13 12:02:00,65.0,37.0,30.37,SE,132,2.0,11.0,35,0.00,,,0.00,,2013-03-13 17:02:00,
2013-03-13 12:12:00,65.0,37.0,30.37,SE,132,2.0,11.0,35,0.00,,,0.00,,2013-03-13 17:12:00,
2013-03-13 12:22:00,65.0,37.0,30.37,SE,132,2.0,11.0,35,0.00,,,0.00,,2013-03-13 17:22:00,
2013-03-13 12:32:00,67.0,38.0,30.36,SE,131,0.0,8.0,34,0.00,,,0.00,,2013-03-13 17:32:00,
2013-03-13 12:42:00,67.0,38.0,30.36,SE,131,0.0,8.0,34,0.00,,,0.00,,2013-03-13 17:42:00,
2013-03-13 12:53:00,67.0,37.0,30.35,SE,132,2.0,7.0,33,0.00,,,0.00,,2013-03-13 17:53:00,
2013-03-13 13:02:00,67.0,36.0,30.35,SE,137,3.0,9.0,32,0.00,,,0.00,,2013-03-13 18:02:00,
2013-03-13 13:12:00,67.0,36.0,30.35,SE,137,3.0,9.0,32,0.00,,,0.00,,2013-03-13 18:12:00,
2013-03-13 13:22:00,68.0,36.0,30.35,SE,137,2.0,7.0,31,0.00,,,0.00,,2013-03-13 18:22:00,
2013-03-13 13:33:00,69.0,38.0,30.33,SE,134,1.0,10.0,32,0.00,,,0.00,,2013-03-13 18:33:00,
2013-03-13 13:42:00,69.0,38.0,30.33,SE,134,1.0,10.0,32,0.00,,,0.00,,2013-03-13 18:42:00,
2013-03-13 13:52:00,69.0,38.0,30.33,SE,130,3.0,9.0,32,0.00,,,0.00,,2013-03-13 18:52:00,
2013-03-13 14:02:00,70.0,40.0,30.32,SE,129,2.0,11.0,33,0.00,,,0.00,,2013-03-13 19:02:00,
2013-03-13 14:12:00,70.0,40.0,30.32,SE,129,2.0,11.0,33,0.00,,,0.00,,2013-03-13 19:12:00,
2013-03-13 14:22:00,70.0,37.0,30.31,SE,141,3.0,9.0,30,0.00,,,0.00,,2013-03-13 19:22:00,
2013-03-13 14:32:00,73.0,39.0,30.30,South,178,1.0,7.0,29,0.00,,,0.00,,2013-03-13 19:32:00,
2013-03-13 14:43:00,73.0,39.0,30.30,South,178,1.0,7.0,29,0.00,,,0.00,,2013-03-13 19:43:00,
2013-03-13 14:52:00,71.0,39.0,30.29,South,175,0.0,14.0,31,0.00,,,0.00,,2013-03-13 19:52:00,
2013-03-13 15:02:00,73.0,40.0,30.28,South,180,4.0,11.0,30,0.00,,,0.00,,2013-03-13 20:02:00,
2013-03-13 15:12:00,73.0,40.0,30.28,South,180,4.0,11.0,30,0.00,,,0.00,,2013-03-13 20:12:00,
2013-03-13 15:22:00,74.0,41.0,30.27,South,180,1.0,9.0,31,0.00,,,0.00,,2013-03-13 20:22:00,
2013-03-13 15:32:00,74.0,40.0,30.26,South,173,4.0,11.0,29,0.00,,,0.00,,2013-03-13 20:32:00,
2013-03-13 15:42:00,74.0,40.0,30.26,South,173,4.0,11.0,29,0.00,,,0.00,,2013-03-13 20:42:00,
2013-03-13 15:52:00,76.0,40.0,30.25,South,180,0.0,5.0,27,0.00,,,0.00,,2013-03-13 20:52:00,
2013-03-13 16:02:00,73.0,39.0,30.25,South,172,3.0,9.0,29,0.00,,,0.00,,2013-03-13 21:02:00,
2013-03-13 16:12:00,73.0,39.0,30.25,South,172,3.0,9.0,29,0.00,,,0.00,,2013-03-13 21:12:00,
2013-03-13 16:22:00,75.0,40.0,30.25,South,187,1.0,13.0,28,0.00,,,0.00,,2013-03-13 21:22:00,
2013-03-13 16:33:00,74.0,39.0,30.24,South,181,0.0,7.0,28,0.00,,,0.00,,2013-03-13 21:33:00,
2013-03-13 16:42:00,74.0,39.0,30.24,South,181,0.0,7.0,28,0.00,,,0.00,,2013-03-13 21:42:00,
2013-03-13 16:52:00,75.0,41.0,30.23,SSE,165,0.0,5.0,30,0.00,,,0.00,,2013-03-13 21:52:00,
2013-03-13 17:02:00,74.0,38.0,30.22,South,173,2.0,11.0,27,0.00,,,0.00,,2013-03-13 22:02:00,
2013-03-13 17:12:00,74.0,38.0,30.22,South,173,2.0,11.0,27,0.00,,,0.00,,2013-03-13 22:12:00,
2013-03-13 17:22:00,75.0,40.0,30.22,South,184,6.0,13.0,28,0.00,,,0.00,,2013-03-13 22:22:00,
2013-03-13 17:32:00,75.0,39.0,30.22,South,184,1.0,7.0,27,0.00,,,0.00,,2013-03-13 22:32:00,
2013-03-13 17:42:00,75.0,39.0,30.22,South,184,1.0,7.0,27,0.00,,,0.00,,2013-03-13 22:42:00,
2013-03-13 17:52:00,75.0,40.0,30.21,South,184,0.0,7.0,28,0.00,,,0.00,,2013-03-13 22:52:00,
2013-03-13 18:02:00,74.0,39.0,30.21,SSE,159,1.0,9.0,28,0.00,,,0.00,,2013-03-13 23:02:00,
2013-03-13 18:12:00,74.0,39.0,30.21,SSE,159,1.0,9.0,28,0.00,,,0.00,,2013-03-13 23:12:00,
2013-03-13 18:22:00,75.0,39.0,30.21,SSE,159,2.0,8.0,27,0.00,,,0.00,,2013-03-13 23:22:00,
2013-03-13 18:32:00,75.0,39.0,30.21,SSE,159,2.0,8.0,27,0.00,,,0.00,,2013-03-13 23:32:00,
2013-03-13 18:42:00,75.0,39.0,30.21,SSE,159,2.0,8.0,27,0.00,,,0.00,,2013-03-13 23:42:00,
2013-03-13 18:52:00,73.0,39.0,30.21,SSE,159,2.0,8.0,29,0.00,,,0.00,,2013-03-13 23:52:00,
2013-03-13 19:02:00,73.0,39.0,30.21,SSE,159,3.0,8.0,29,0.00,,,0.00,,2013-03-14 00:02:00,
2013-03-13 19:12:00,73.0,39.0,30.21,SSE,159,3.0,8.0,29,0.00,,,0.00,,2013-03-14 00:12:00,
2013-03-13 19:22:00,73.0,40.0,30.21,SSE,159,3.0,9.0,30,0.00,,,0.00,,2013-03-14 00:22:00,
2013-03-13 19:32:00,72.0,39.0,30.21,SSE,159,0.0,7.0,30,0.00,,,0.00,,2013-03-14 00:32:00,
2013-03-13 19:42:00,72.0,39.0,30.21,SSE,159,0.0,7.0,30,0.00,,,0.00,,2013-03-14 00:42:00,
2013-03-13 19:52:00,71.0,40.0,30.21,SSE,159,0.0,7.0,32,0.00,,,0.00,,2013-03-14 00:52:00,
2013-03-13 20:02:00,70.0,40.0,30.21,SSE,159,0.0,5.0,33,0.00,,,0.00,,2013-03-14 01:02:00,
2013-03-13 20:12:00,70.0,40.0,30.21,SSE,159,0.0,5.0,33,0.00,,,0.00,,2013-03-14 01:12:00,
2013-03-13 20:22:00,69.0,39.0,30.21,SSE,159,1.0,8.0,33,0.00,,,0.00,,2013-03-14 01:22:00,
2013-03-13 20:32:00,69.0,39.0,30.21,SSE,159,3.0,8.0,33,0.00,,,0.00,,2013-03-14 01:32:00,
2013-03-13 20:42:00,69.0,39.0,30.21,SSE,159,3.0,8.0,33,0.00,,,0.00,,2013-03-14 01:42:00,
2013-03-13 20:52:00,68.0,39.0,30.21,SSE,159,0.0,6.0,35,0.00,,,0.00,,2013-03-14 01:52:00,
2013-03-13 21:02:00,66.0,40.0,30.21,SSE,159,0.0,2.0,39,0.00,,,0.00,,2013-03-14 02:02:00,
2013-03-13 21:12:00,66.0,40.0,30.21,SSE,159,0.0,2.0,39,0.00,,,0.00,,2013-03-14 02:12:00,
2013-03-13 21:22:00,64.0,40.0,30.21,SSE,159,0.0,3.0,41,0.00,,,0.00,,2013-03-14 02:22:00,
2013-03-13 21:32:00,64.0,40.0,30.21,SSE,159,0.0,3.0,41,0.00,,,0.00,,2013-03-14 02:32:00,
2013-03-13 21:42:00,64.0,40.0,30.21,SSE,159,0.0,3.0,41,0.00,,,0.00,,2013-03-14 02:42:00,
2013-03-13 21:51:00,64.0,40.0,30.21,SSE,159,0.0,3.0,41,0.00,,,0.00,,2013-03-14 02:51:00,
2013-03-13 22:02:00,62.0,40.0,30.23,SSE,159,0.0,0.0,44,0.00,,,0.00,,2013-03-14 03:02:00,
2013-03-13 22:12:00,62.0,40.0,30.23,SSE,159,0.0,0.0,44,0.00,,,0.00,,2013-03-14 03:12:00,
2013-03-13 22:23:00,61.0,40.0,30.23,SSE,159,0.0,0.0,45,0.00,,,0.00,,2013-03-14 03:23:00,
2013-03-13 22:32:00,60.0,42.0,30.24,SSE,159,0.0,4.0,52,0.00,,,0.00,,2013-03-14 03:32:00,
2013-03-13 22:42:00,60.0,42.0,30.24,SSE,159,0.0,4.0,52,0.00,,,0.00,,2013-03-14 03:42:00,
2013-03-13 22:52:00,60.0,42.0,30.24,SSE,159,0.0,4.0,52,0.00,,,0.00,,2013-03-14 03:52:00,
2013-03-13 23:12:00,61.0,40.0,30.24,SSE,159,2.0,5.0,45,0.00,,,0.00,,2013-03-14 04:12:00,
2013-03-13 23:22:00,61.0,40.0,30.24,SSE,159,3.0,6.0,46,0.00,,,0.00,,2013-03-14 04:22:00,
2013-03-13 23:32:00,62.0,39.0,30.26,SSE,148,6.0,14.0,43,0.00,,,0.00,,2013-03-14 04:32:00,
2013-03-13 23:42:00,62.0,39.0,30.26,SSE,148,6.0,14.0,43,0.00,,,0.00,,2013-03-14 04:42:00,
2013-03-13 23:52:00,62.0,40.0,30.27,South,169,7.0,15.0,44,0.00,,,0.00,,2013-03-14 04:52:00,